| time (UTC) | temp F | wind direction | speed MPH | gust MPH | rain 1hr in | rain 24hr in | rain mn in | humidity % | barometer mb |
| 20260831080029 | 81 | 171 | 4.0 | 9.0 | 0.00 | 0.00 | 0.00 | 76 | 1013.6 |
| 20260831075028 | 81 | 205 | 3.0 | 8.0 | 0.00 | 0.00 | 0.00 | 75 | 1013.6 |
| 20260831074029 | 81 | 169 | 2.0 | 10.0 | 0.00 | 0.00 | 0.00 | 74 | 1013.5 |
| 20260831073029 | 82 | 165 | 6.0 | 8.0 | 0.00 | 0.00 | 0.00 | 74 | 1013.6 |
| 20260831071028 | 82 | 157 | 8.0 | 11.0 | 0.00 | 0.00 | 0.00 | 73 | 1013.6 |
| 20260831070029 | 82 | 178 | 5.0 | 10.0 | 0.00 | 0.00 | 0.00 | 72 | 1013.6 |
| 20260831065028 | 83 | 193 | 4.0 | 9.0 | 0.00 | 0.00 | 0.00 | 71 | 1013.7 |
| 20260831062029 | 84 | 167 | 6.0 | 8.0 | 0.00 | 0.00 | 0.00 | 68 | 1013.7 |
| 20260831061029 | 84 | 190 | 5.0 | 9.0 | 0.00 | 0.00 | 0.00 | 67 | 1013.7 |
| 20260831060028 | 84 | 189 | 7.0 | 11.0 | 0.00 | 0.00 | 0.00 | 66 | 1013.6 |
| 20260831055028 | 85 | 156 | 7.0 | 10.0 | 0.00 | 0.00 | 0.00 | 65 | 1013.6 |
| 20260831054028 | 85 | 207 | 5.0 | 9.0 | 0.00 | 0.00 | 0.00 | 65 | 1013.6 |
| 20260831053028 | 85 | 172 | 9.0 | 10.0 | 0.00 | 0.00 | 0.00 | 64 | 1013.4 |
| 20260831052028 | 86 | 169 | 6.0 | 11.0 | 0.00 | 0.00 | 0.00 | 63 | 1013.4 |
| 20260831051028 | 86 | 155 | 7.0 | 10.0 | 0.00 | 0.00 | 0.00 | 62 | 1013.3 |
| 20260831045028 | 86 | 126 | 7.0 | 7.0 | 0.00 | 0.00 | 0.00 | 61 | 1013.2 |
| 20260831044028 | 87 | 152 | 8.0 | 14.0 | 0.00 | 0.00 | 0.00 | 61 | 1013.2 |
| 20260831043028 | 87 | 190 | 3.0 | 11.0 | 0.00 | 0.00 | 0.00 | 60 | 1013.1 |
| 20260831041028 | 87 | 171 | 6.0 | 11.0 | 0.00 | 0.00 | 0.00 | 60 | 1013.2 |
| 20260831040028 | 87 | 146 | 5.0 | 10.0 | 0.00 | 0.00 | 0.00 | 60 | 1013.1 |
| 20260831035028 | 87 | 166 | 6.0 | 9.0 | 0.00 | 0.00 | 0.00 | 59 | 1013.0 |
| 20260831034028 | 88 | 171 | 6.0 | 11.0 | 0.00 | 0.00 | 0.00 | 59 | 1012.8 |
| 20260831033028 | 88 | 130 | 9.0 | 11.0 | 0.00 | 0.00 | 0.00 | 58 | 1012.7 |
| 20260831032028 | 88 | 168 | 7.0 | 11.0 | 0.00 | 0.00 | 0.00 | 58 | 1012.7 |
| 20260831031028 | 88 | 137 | 7.0 | 11.0 | 0.00 | 0.00 | 0.00 | 57 | 1012.6 |
| 20260831030028 | 89 | 144 | 5.0 | 11.0 | 0.00 | 0.00 | 0.00 | 57 | 1012.4 |
| 20260831025028 | 89 | 138 | 11.0 | 13.0 | 0.00 | 0.00 | 0.00 | 57 | 1012.3 |
| 20260831024028 | 89 | 131 | 5.0 | 11.0 | 0.00 | 0.00 | 0.00 | 56 | 1012.2 |
| 20260831023028 | 90 | 171 | 9.0 | 12.0 | 0.00 | 0.00 | 0.00 | 56 | 1012.1 |
| 20260831022028 | 90 | 113 | 10.0 | 15.0 | 0.00 | 0.00 | 0.00 | 55 | 1011.8 |
| 20260831020028 | 91 | 65 | 6.0 | 13.0 | 0.00 | 0.00 | 0.00 | 49 | 1011.5 |
| 20260831015028 | 92 | 103 | 2.0 | 6.0 | 0.00 | 0.00 | 0.00 | 46 | 1011.3 |
| 20260831014028 | 92 | 121 | 3.0 | 5.0 | 0.00 | 0.00 | 0.00 | 45 | 1011.1 |
| 20260831013028 | 92 | 116 | 0.0 | 4.0 | 0.00 | 0.00 | 0.00 | 43 | 1011.0 |
| 20260831012028 | 92 | 101 | 3.0 | 6.0 | 0.00 | 0.00 | 0.00 | 42 | 1010.9 |
| 20260831011028 | 93 | 152 | 0.0 | 3.0 | 0.00 | 0.00 | 0.00 | 41 | 1010.8 |
| 20260831010028 | 94 | 111 | 0.0 | 5.0 | 0.00 | 0.00 | 0.00 | 40 | 1010.9 |
| 20260831005028 | 94 | 93 | 3.0 | 8.0 | 0.00 | 0.00 | 0.00 | 40 | 1010.9 |
| 20260831003028 | 95 | 140 | 2.0 | 8.0 | 0.00 | 0.00 | 0.00 | 38 | 1010.8 |
| 20260831002028 | 96 | 132 | 5.0 | 12.0 | 0.00 | 0.00 | 0.00 | 38 | 1010.7 |
| 20260831001028 | 96 | 110 | 1.0 | 6.0 | 0.00 | 0.00 | 0.00 | 39 | 1010.7 |
| 20260831000028 | 96 | 105 | 3.0 | 11.0 | 0.00 | 0.00 | 0.00 | 38 | 1010.8 |
| 20260830235028 | 97 | 107 | 6.0 | 9.0 | 0.00 | 0.00 | 0.00 | 38 | 1010.8 |
| 20260830234028 | 97 | 151 | 2.0 | 10.0 | 0.00 | 0.00 | 0.00 | 38 | 1010.8 |
| 20260830233028 | 97 | 138 | 3.0 | 7.0 | 0.00 | 0.00 | 0.00 | 37 | 1010.8 |
| 20260830232028 | 96 | 88 | 4.0 | 6.0 | 0.00 | 0.00 | 0.00 | 38 | 1010.9 |
| 20260830230028 | 97 | 161 | 6.0 | 11.0 | 0.00 | 0.00 | 0.00 | 38 | 1010.8 |
| 20260830225028 | 97 | 94 | 0.0 | 9.0 | 0.00 | 0.00 | 0.00 | 36 | 1010.9 |
| 20260830224028 | 98 | 156 | 3.0 | 12.0 | 0.00 | 0.00 | 0.00 | 37 | 1010.9 |
| 20260830223028 | 98 | 76 | 7.0 | 10.0 | 0.00 | 0.00 | 0.00 | 38 | 1010.9 |
| 20260830222028 | 98 | 113 | 8.0 | 10.0 | 0.00 | 0.00 | 0.00 | 38 | 1010.9 |
| 20260830221028 | 98 | 199 | 2.0 | 9.0 | 0.00 | 0.00 | 0.00 | 38 | 1011.0 |
| 20260830220028 | 98 | 172 | 3.0 | 12.0 | 0.00 | 0.00 | 0.00 | 40 | 1011.1 |
| 20260830215028 | 98 | 98 | 1.0 | 11.0 | 0.00 | 0.00 | 0.00 | 39 | 1011.1 |
| 20260830214028 | 98 | 115 | 9.0 | 11.0 | 0.00 | 0.00 | 0.00 | 41 | 1011.3 |
| 20260830213028 | 98 | 122 | 5.0 | 11.0 | 0.00 | 0.00 | 0.00 | 41 | 1011.4 |
| 20260830212028 | 97 | 142 | 6.0 | 10.0 | 0.00 | 0.00 | 0.00 | 42 | 1011.6 |
| 20260830211028 | 96 | 117 | 4.0 | 9.0 | 0.00 | 0.00 | 0.00 | 41 | 1011.8 |
| 20260830210028 | 97 | 120 | 3.0 | 12.0 | 0.00 | 0.00 | 0.00 | 41 | 1011.9 |
| 20260830205028 | 98 | 144 | 4.0 | 11.0 | 0.00 | 0.00 | 0.00 | 40 | 1012.2 |
| 20260830204028 | 96 | 177 | 12.0 | 13.0 | 0.00 | 0.00 | 0.00 | 43 | 1012.1 |
| 20260830203028 | 96 | 192 | 7.0 | 14.0 | 0.00 | 0.00 | 0.00 | 43 | 1012.4 |
| 20260830202028 | 96 | 128 | 4.0 | 10.0 | 0.00 | 0.00 | 0.00 | 44 | 1012.5 |
| 20260830200028 | 96 | 145 | 4.0 | 11.0 | 0.00 | 0.00 | 0.00 | 43 | 1012.9 |
| 20260830193028 | 96 | 105 | 3.0 | 15.0 | 0.00 | 0.00 | 0.00 | 45 | 1013.3 |
| 20260830192028 | 96 | 177 | 7.0 | 10.0 | 0.00 | 0.00 | 0.00 | 45 | 1013.4 |
| 20260830191028 | 95 | 166 | 9.0 | 12.0 | 0.00 | 0.00 | 0.00 | 46 | 1013.6 |
| 20260830190028 | 95 | 191 | 3.0 | 14.0 | 0.00 | 0.00 | 0.00 | 46 | 1013.7 |
| 20260830185028 | 94 | 180 | 6.0 | 11.0 | 0.00 | 0.00 | 0.00 | 49 | 1013.8 |
| 20260830184028 | 94 | 157 | 7.0 | 10.0 | 0.00 | 0.00 | 0.00 | 48 | 1013.9 |
| 20260830183028 | 94 | 171 | 6.0 | 13.0 | 0.00 | 0.00 | 0.00 | 49 | 1014.1 |
| 20260830181028 | 93 | 118 | 0.0 | 14.0 | 0.00 | 0.00 | 0.00 | 50 | 1014.4 |
| 20260830180028 | 92 | 229 | 2.0 | 11.0 | 0.00 | 0.00 | 0.00 | 54 | 1014.6 |
| 20260830175028 | 92 | 187 | 3.0 | 13.0 | 0.00 | 0.00 | 0.00 | 54 | 1014.8 |
| 20260830174028 | 92 | 125 | 1.0 | 13.0 | 0.00 | 0.00 | 0.00 | 55 | 1015.1 |
| 20260830173028 | 92 | 121 | 7.0 | 12.0 | 0.00 | 0.00 | 0.00 | 55 | 1015.3 |
| 20260830171028 | 91 | 172 | 10.0 | 14.0 | 0.00 | 0.00 | 0.00 | 58 | 1015.6 |
| 20260830170028 | 91 | 115 | 8.0 | 13.0 | 0.00 | 0.00 | 0.00 | 58 | 1015.6 |
| 20260830165027 | 90 | 249 | 4.0 | 12.0 | 0.00 | 0.00 | 0.00 | 58 | 1015.6 |
| 20260830164027 | 90 | 147 | 10.0 | 14.0 | 0.00 | 0.00 | 0.00 | 56 | 1015.7 |
| 20260830163028 | 90 | 203 | 8.0 | 9.0 | 0.00 | 0.00 | 0.00 | 60 | 1015.7 |
| 20260830161027 | 89 | 149 | 2.0 | 10.0 | 0.00 | 0.00 | 0.00 | 61 | 1015.8 |
| 20260830160028 | 89 | 217 | 5.0 | 9.0 | 0.00 | 0.00 | 0.00 | 61 | 1015.8 |
| 20260830155027 | 88 | 233 | 5.0 | 10.0 | 0.00 | 0.00 | 0.00 | 62 | 1015.7 |
| 20260830154028 | 88 | 202 | 8.0 | 10.0 | 0.00 | 0.00 | 0.00 | 63 | 1015.7 |
| 20260830153028 | 87 | 180 | 5.0 | 7.0 | 0.00 | 0.00 | 0.00 | 65 | 1015.7 |
| 20260830152028 | 86 | 218 | 4.0 | 11.0 | 0.00 | 0.00 | 0.00 | 65 | 1015.5 |
| 20260830151028 | 86 | 142 | 5.0 | 12.0 | 0.00 | 0.00 | 0.00 | 67 | 1015.4 |
| 20260830150027 | 86 | 210 | 4.0 | 11.0 | 0.00 | 0.00 | 0.00 | 67 | 1015.5 |
| 20260830145027 | 85 | 173 | 8.0 | 11.0 | 0.00 | 0.00 | 0.00 | 68 | 1015.4 |
| 20260830143027 | 84 | 229 | 4.0 | 10.0 | 0.00 | 0.00 | 0.00 | 71 | 1015.5 |
| 20260830142027 | 83 | 246 | 10.0 | 13.0 | 0.00 | 0.00 | 0.00 | 72 | 1015.5 |
| 20260830141028 | 82 | 225 | 6.0 | 12.0 | 0.00 | 0.00 | 0.00 | 74 | 1015.4 |
| 20260830135027 | 81 | 188 | 2.0 | 14.0 | 0.00 | 0.00 | 0.00 | 76 | 1015.5 |
| 20260830134028 | 81 | 188 | 7.0 | 12.0 | 0.00 | 0.00 | 0.00 | 78 | 1015.4 |
| 20260830133028 | 80 | 205 | 9.0 | 14.0 | 0.00 | 0.00 | 0.00 | 78 | 1015.1 |
| 20260830130027 | 78 | 182 | 2.0 | 6.0 | 0.00 | 0.00 | 0.00 | 82 | 1014.9 |
| 20260830125027 | 77 | 215 | 1.0 | 4.0 | 0.00 | 0.00 | 0.00 | 82 | 1014.8 |
| 20260830124027 | 77 | 171 | 1.0 | 4.0 | 0.00 | 0.00 | 0.00 | 83 | 1014.9 |
| 20260830122027 | 76 | 143 | 3.0 | 3.0 | 0.00 | 0.00 | 0.00 | 82 | 1014.7 |
| 20260830121028 | 76 | 158 | 1.0 | 5.0 | 0.00 | 0.00 | 0.00 | 82 | 1014.6 |
| 20260830120027 | 77 | 159 | 0.0 | 4.0 | 0.00 | 0.00 | 0.00 | 81 | 1014.4 |
| 20260830115027 | 77 | 150 | 1.0 | 5.0 | 0.00 | 0.00 | 0.00 | 81 | 1014.4 |
| 20260830114027 | 77 | 176 | 2.0 | 5.0 | 0.00 | 0.00 | 0.00 | 80 | 1014.3 |
| 20260830113029 | 77 | 163 | 2.0 | 6.0 | 0.00 | 0.00 | 0.00 | 80 | 1014.3 |
| 20260830112027 | 77 | 174 | 2.0 | 5.0 | 0.00 | 0.00 | 0.00 | 79 | 1014.2 |
| 20260830111027 | 77 | 159 | 2.0 | 3.0 | 0.00 | 0.00 | 0.00 | 78 | 1014.2 |
| 20260830110027 | 78 | 167 | 1.0 | 5.0 | 0.00 | 0.00 | 0.00 | 78 | 1014.2 |
| 20260830104027 | 78 | 197 | 2.0 | 3.0 | 0.00 | 0.00 | 0.00 | 76 | 1014.1 |
| 20260830103027 | 78 | 175 | 1.0 | 4.0 | 0.00 | 0.00 | 0.00 | 76 | 1014.1 |
| 20260830102027 | 79 | 184 | 2.0 | 6.0 | 0.00 | 0.00 | 0.00 | 75 | 1013.9 |
| 20260830101027 | 79 | 203 | 4.0 | 5.0 | 0.00 | 0.00 | 0.00 | 75 | 1013.9 |
| 20260830100027 | 79 | 175 | 3.0 | 5.0 | 0.00 | 0.00 | 0.00 | 74 | 1013.9 |
| 20260830095027 | 79 | 166 | 3.0 | 5.0 | 0.00 | 0.00 | 0.00 | 74 | 1013.8 |
| 20260830093027 | 80 | 174 | 3.0 | 7.0 | 0.00 | 0.00 | 0.00 | 73 | 1013.8 |
| 20260830091027 | 80 | 198 | 5.0 | 8.0 | 0.00 | 0.00 | 0.00 | 72 | 1013.8 |
| 20260830090027 | 80 | 163 | 7.0 | 9.0 | 0.00 | 0.00 | 0.00 | 72 | 1013.8 |
| 20260830085027 | 81 | 217 | 7.0 | 9.0 | 0.00 | 0.00 | 0.00 | 71 | 1013.8 |
| 20260830084027 | 81 | 205 | 4.0 | 10.0 | 0.00 | 0.00 | 0.00 | 71 | 1013.8 |
| 20260830083027 | 81 | 186 | 9.0 | 11.0 | 0.00 | 0.00 | 0.00 | 71 | 1013.8 |
| 20260830082027 | 81 | 193 | 10.0 | 11.0 | 0.00 | 0.00 | 0.00 | 70 | 1013.9 |
| 20260830081027 | 82 | 166 | 5.0 | 10.0 | 0.00 | 0.00 | 0.00 | 70 | 1014.0 |